Wind_Speed
52 52 53 54 54 56 57 58 60 61 63 64 65 66 67 68 69 70 71 73 74 75 76 78 79 81 82 84 86 87 89 91 92 94 96 97 99 101 102 103 104 105 106 107 108 109 111 111 112 113 114 115
49 49 50 51 52 53 55 57 58 59 60 62 63 64 65 66 67 69 70 71 73 74 75 76 78 79 81 83 84 86 88 90 92 93 95 97 98 100 101 102 104 105 106 107 108 109 110 110 111 112 113 113
48 49 50 51 52 53 55 56 57 58 59 60 61 62 64 65 66 68 69 70 71 72 74 75 77 79 81 82 84 86 88 90 92 93 95 97 98 99 101 102 103 104 105 106 107 108 109 111 111 112 113 113
49 50 51 52 53 54 56 57 58 59 59 61 62 63 64 65 67 68 69 70 71 73 74 76 78 80 82 84 86 88 90 92 93 94 95 97 98 99 100 101 102 103 104 105 106 107 109 110 111 112 113 114
51 52 53 54 55 56 57 58 59 60 61 62 63 65 66 67 68 69 70 72 73 75 76 78 80 82 85 86 88 90 92 94 95 96 97 97 98 98 99 100 101 101 101 102 103 105 107 108 110 111 113 114
53 53 54 55 56 57 59 60 61 62 64 65 66 67 68 69 70 71 72 74 75 77 78 80 83 85 87 89 90 91 93 95 96 97 98 98 98 98 98 98 99 99 99 99 100 102 103 105 106 108 110 112
54 55 55 56 57 59 60 62 63 65 66 67 68 69 70 71 72 73 74 76 77 79 81 83 86 88 89 90 91 92 93 93 95 96 96 96 96 96 96 96 97 99 99 100 101 102 103 104 105 106 106 108
56 56 57 58 59 60 62 63 65 67 68 69 70 71 72 73 74 76 77 78 80 82 84 86 88 89 90 91 91 92 92 92 92 91 90 90 90 91 92 93 96 98 99 101 102 103 104 105 107 107 108 108
57 58 59 60 61 62 63 65 67 68 70 71 72 73 74 75 77 78 80 81 83 84 86 88 89 90 91 91 92 92 92 91 89 87 85 85 86 88 90 93 95 97 99 101 102 104 105 106 107 109 110 111
59 60 61 61 62 63 65 66 68 70 72 73 74 75 76 78 80 81 82 84 85 87 89 90 91 92 92 93 94 94 93 91 88 86 86 87 89 91 94 96 97 98 99 101 102 103 105 106 107 109 110 111
61 62 63 63 64 65 66 68 70 72 73 74 75 76 78 81 82 84 85 86 87 90 91 93 93 93 94 95 95 96 94 92 90 89 90 92 94 96 96 97 98 99 100 100 101 102 103 104 106 108 110 111
63 64 64 65 65 66 68 70 72 73 74 75 76 78 81 83 85 86 88 89 90 92 93 94 95 95 96 97 98 97 96 94 94 94 95 96 96 96 95 96 98 100 100 100 100 100 100 101 103 105 107 109
64 65 66 66 67 68 69 71 73 74 75 76 78 81 83 85 87 88 90 91 93 94 95 96 97 98 99 99 100 99 97 97 98 98 98 97 95 93 94 96 98 100 100 99 98 98 98 98 99 101 103 105
66 67 67 67 68 69 70 72 74 75 76 78 81 84 86 87 88 90 92 93 94 95 97 98 99 100 101 102 102 101 100 100 100 99 98 95 93 92 94 96 99 100 99 98 97 96 96 96 96 97 98 100
67 68 69 69 70 70 72 74 75 76 78 81 84 86 87 88 90 92 94 95 96 97 99 101 102 102 103 104 104 103 102 102 101 99 96 93 91 92 94 96 98 98 97 96 95 95 94 94 95 95 96 97
69 70 71 71 71 72 73 75 76 78 80 83 86 87 88 90 92 93 94 95 97 99 101 102 102 103 104 105 105 104 103 102 101 98 94 91 91 92 94 96 95 94 92 92 92 92 93 93 94 94 95 95
71 73 73 72 72 74 75 76 77 79 82 86 88 88 89 91 93 94 95 96 99 101 102 102 102 103 104 105 106 105 103 101 99 97 93 91 91 92 94 94 91 88 87 87 87 88 89 91 92 93 93 94
73 75 74 73 74 75 76 77 79 81 85 88 89 89 91 92 93 94 95 98 100 102 102 102 102 103 103 105 105 105 103 101 99 96 94 93 93 93 93 91 87 84 81 81 82 83 84 86 88 89 91 92
75 76 74 74 75 75 76 78 81 84 88 89 89 90 91 92 93 94 96 98 101 102 102 102 103 103 104 105 105 104 103 100 98 95 94 94 94 94 93 89 84 80 77 76 76 77 78 80 82 84 86 87
76 75 74 74 75 75 77 80 84 87 89 89 90 91 91 92 93 95 97 99 101 102 103 103 103 104 105 106 106 104 102 100 98 96 95 95 95 95 94 89 83 79 75 72 71 72 73 74 76 78 79 81
74 73 73 73 74 76 79 83 86 88 88 89 90 90 91 93 95 96 98 101 103 104 104 104 105 105 106 107 106 105 103 101 99 97 97 96 96 96 94 90 84 79 74 71 69 68 68 69 70 72 74 75
72 72 72 73 75 79 83 86 87 87 88 89 89 91 93 95 96 98 100 103 104 105 106 106 106 107 108 108 108 106 104 102 100 99 98 97 96 96 95 91 87 82 76 71 68 66 65 65 66 67 69 70
70 70 72 76 80 83 85 86 86 86 87 88 90 92 95 96 98 100 102 105 106 107 108 108 108 109 110 110 109 108 106 104 102 101 99 99 98 98 96 92 89 86 81 75 70 67 65 64 64 65 65 67
70 73 77 80 82 84 85 85 84 85 86 87 90 93 95 97 99 102 105 106 108 109 110 110 110 111 112 111 110 109 108 106 105 103 101 101 101 100 99 95 91 89 85 80 74 69 66 64 63 63 64 65
73 76 78 80 81 82 83 83 83 84 85 88 90 92 95 98 100 103 105 107 108 110 111 111 112 113 113 113 112 111 110 109 107 106 104 103 103 103 102 99 95 91 88 84 79 74 69 66 64 63 63 64
74 76 78 79 80 81 81 82 83 84 86 88 90 93 95 97 100 102 104 106 109 110 111 112 114 115 115 114 113 112 111 110 109 108 107 106 105 105 104 102 99 96 92 87 83 79 75 70 67 65 64 64
73 76 78 79 80 81 82 82 83 84 86 88 90 92 95 97 99 102 104 107 109 110 112 113 115 115 116 115 114 113 113 112 111 110 110 109 109 108 107 105 103 101 97 92 87 83 79 75 71 68 67 65
74 76 77 79 80 81 82 82 83 84 86 88 90 92 94 96 99 102 104 107 108 110 112 114 115 116 116 115 115 115 114 114 113 113 112 112 112 112 110 108 106 104 102 97 92 87 83 79 76 72 69 68
78 78 78 78 79 80 81 82 83 84 86 88 89 90 93 96 99 102 104 106 107 110 112 113 114 116 116 115 115 116 116 116 116 115 115 115 115 115 114 112 110 108 105 102 97 91 87 83 79 76 73 70
81 81 79 77 77 78 79 80 82 84 85 85 87 90 93 96 99 102 104 105 107 110 111 112 114 116 115 115 116 116 117 118 118 118 118 117 117 117 117 115 114 111 109 106 101 96 91 87 82 79 75 73
83 82 80 77 76 76 77 79 80 81 82 83 87 90 94 97 99 101 103 105 108 110 110 112 114 115 114 115 116 116 118 119 120 120 120 120 120 120 119 118 117 115 112 109 105 101 96 91 86 82 78 75
Wind_Direction
286 286 286 286 286 286 286 286 286 286 286 286 285 285 284 283 283 282 282 281 281 281 281 281 280 280 280 279 279 279 278 278 278 277 277 277 277 277 276 277 277 277 277 277 277 276 276 276 275 275 274 274
287 287 287 287 287 287 286 286 286 286 286 286 285 284 283 283 282 282 282 282 281 281 281 281 281 281 280 280 280 279 279 278 278 277 277 277 276 276 276 276 276 276 276 276 276 275 275 275 275 274 274 274
287 286 286 286 286 286 286 287 287 287 287 286 286 285 285 285 284 284 284 284 283 283 283 283 283 284 283 283 282 282 281 280 279 278 278 277 277 277 277 277 276 276 275 275 275 274 274 273 273 273 272 272
287 286 286 286 286 287 288 289 289 289 289 289 289 289 288 288 288 287 287 286 286 286 286 286 287 287 287 286 285 284 283 282 280 279 279 279 279 278 278 278 277 277 277 276 275 274 274 273 272 272 271 271
287 287 287 288 289 290 290 291 291 292 292 292 292 292 292 291 291 290 290 290 289 289 289 289 289 289 289 288 287 286 285 284 282 281 280 280 280 280 280 280 280 279 278 278 277 276 275 274 273 272 271 270
289 290 290 291 292 292 293 294 295 295 296 295 295 295 295 295 294 294 293 293 292 292 291 291 291 290 289 289 288 287 286 285 283 282 282 281 281 281 281 280 280 279 278 278 277 276 275 275 274 273 272 271
293 293 293 294 294 295 296 297 298 298 298 298 298 298 298 297 296 296 295 295 294 294 293 292 291 290 290 289 288 287 286 285 284 283 282 281 281 280 279 279 278 277 277 276 275 275 274 273 272 272 271 271
295 295 295 296 296 297 298 299 299 300 300 300 299 299 299 298 298 297 297 296 296 295 294 294 293 293 292 292 291 289 288 287 286 285 284 283 282 281 280 280 278 278 277 276 275 274 273 272 271 270 269 269
296 297 297 297 298 298 299 299 300 300 300 300 300 299 299 299 299 299 299 298 297 297 297 297 296 296 296 295 295 293 292 291 290 290 290 289 289 288 287 286 285 283 281 279 277 275 274 272 271 270 269 268
298 298 298 298 298 298 299 299 300 300 300 300 300 301 301 301 301 300 300 299 299 300 300 300 299 299 298 298 297 296 295 295 296 296 296 296 296 296 295 294 291 289 287 284 281 278 276 274 272 271 269 268
299 299 299 298 298 298 298 299 299 299 300 301 301 302 302 302 301 301 301 302 302 302 302 301 301 300 300 300 299 299 298 299 300 301 301 301 301 300 299 297 295 293 290 287 285 282 279 277 274 272 270 269
300 299 298 297 297 298 298 298 298 299 301 302 302 303 303 303 303 303 303 303 303 303 303 302 302 302 302 302 301 300 301 302 303 304 304 304 303 302 301 299 298 296 294 291 288 284 281 279 276 274 272 270
301 299 298 297 297 297 297 298 299 300 302 303 303 303 303 304 304 304 304 304 304 304 303 303 303 303 303 302 302 302 302 304 305 305 305 305 305 304 303 303 302 300 297 294 291 287 284 281 278 275 273 271
301 300 298 297 296 296 297 298 300 301 302 303 303 304 304 304 304 304 304 304 305 304 304 304 304 303 303 303 303 303 304 305 306 306 307 307 306 306 306 306 305 303 300 297 294 290 287 283 280 277 274 271
301 300 298 297 296 296 297 299 301 302 303 303 304 304 304 304 304 304 304 305 305 305 305 304 304 304 304 304 303 304 305 306 307 307 308 308 308 309 310 310 308 305 302 298 295 292 289 285 282 279 276 273
301 300 299 298 297 297 298 300 302 303 303 304 304 304 304 304 304 304 304 305 304 304 304 304 304 304 304 304 304 305 306 307 308 309 309 309 310 311 312 312 309 306 302 298 294 291 289 286 283 281 278 275
301 301 300 298 297 298 299 301 303 303 304 304 304 304 304 304 304 304 304 304 304 304 304 304 304 304 304 304 305 306 307 308 309 310 311 311 313 314 314 313 311 306 302 298 294 290 288 285 283 281 279 276
301 302 300 298 298 298 300 302 303 303 304 304 304 303 303 304 304 304 304 304 305 305 304 304 305 305 306 306 306 307 309 310 311 312 313 314 315 316 316 316 313 309 304 298 294 290 287 285 283 281 279 277
301 302 300 298 298 300 302 303 303 303 303 303 303 303 303 304 304 304 305 305 305 305 305 306 306 307 308 307 308 309 310 311 312 313 315 316 317 318 319 318 316 313 308 302 296 292 288 285 283 281 279 278
302 301 300 299 301 302 303 302 301 302 302 303 303 303 303 304 305 306 306 306 306 306 307 307 308 309 309 309 309 310 312 313 314 315 316 317 319 320 321 321 321 318 313 307 301 296 292 289 286 283 281 279
302 300 300 301 302 302 300 300 300 302 302 303 303 303 304 305 307 308 307 307 308 308 309 309 310 311 311 311 311 312 313 314 315 316 318 319 320 322 324 324 324 323 319 313 307 302 297 294 291 288 285 282
300 301 302 303 301 299 299 300 301 302 303 303 304 304 305 307 308 308 308 309 309 310 310 311 312 312 312 312 313 314 315 315 316 317 319 320 322 324 326 327 328 327 324 319 313 307 302 298 295 292 289 286
303 304 303 301 299 299 300 301 302 303 303 303 304 304 306 307 308 308 309 310 310 311 312 312 313 314 314 314 315 315 316 317 317 319 320 321 323 326 328 329 331 331 329 325 320 315 309 304 301 297 293 290
305 303 300 298 299 300 301 302 303 303 303 303 303 304 305 306 307 308 309 310 311 312 313 314 315 315 315 315 316 316 317 318 319 320 321 323 325 327 329 331 332 333 332 330 326 322 317 312 307 303 299 295
302 299 298 299 300 301 302 303 303 303 303 304 304 305 305 306 306 308 309 311 312 313 314 315 316 316 316 317 317 317 318 319 320 321 322 324 326 328 330 332 333 334 334 333 330 326 322 318 314 309 305 301
300 299 299 300 300 301 302 303 303 303 304 305 305 305 305 306 307 308 310 312 312 313 314 316 317 317 318 318 318 318 319 319 320 322 323 325 327 329 331 333 334 335 336 335 333 330 327 323 319 314 310 306
304 302 300 300 300 301 301 302 303 304 305 305 305 305 306 306 308 310 311 312 313 314 315 317 318 318 319 319 319 319 320 320 321 323 324 326 328 330 332 333 334 335 336 336 335 333 330 327 323 319 314 310
310 307 304 301 300 300 301 302 303 303 304 304 305 305 306 308 310 311 312 313 314 315 316 318 319 319 320 320 320 320 321 321 322 324 325 327 329 330 332 333 335 335 336 336 335 334 332 330 326 322 318 313
313 311 308 303 300 300 300 301 302 303 303 304 305 306 308 310 311 311 312 313 314 316 317 318 319 321 321 321 321 321 322 322 323 324 326 327 329 331 332 333 335 335 336 336 335 335 333 331 329 325 321 316
315 313 310 305 301 300 300 301 302 302 303 304 306 308 310 310 311 312 313 314 315 317 318 319 320 321 322 322 322 323 323 323 324 325 326 328 329 331 332 333 334 335 335 335 335 335 334 332 330 327 323 318
315 313 310 305 302 301 301 302 302 303 304 306 308 310 310 310 311 312 313 315 316 317 318 320 321 322 322 323 323 324 324 324 325 325 326 328 329 331 332 333 334 334 335 335 335 334 334 333 331 328 324 320
Height
10790 10787 10785 10782 10780 10777 10775 10772 10769 10767 10765 10762 10760 10757 10754 10751 10749 10746 10743 10739 10736 10733 10730 10726 10722 10719 10715 10712 10708 10704 10701 10698 10694 10690 10686 10682 10679 10676 10673 10670 10667 10664 10661 10658 10654 10651 10647 10646 10644 10641 10640 10639
10784 10781 10779 10777 10774 10772 10769 10766 10764 10761 10759 10756 10753 10750 10747 10744 10741 10738 10735 10732 10729 10725 10721 10717 10714 10710 10706 10702 10699 10695 10691 10688 10684 10680 10676 10672 10669 10666 10663 10660 10657 10653 10650 10646 10643 10640 10635 10633 10631 10627 10625 10625
10779 10776 10774 10771 10769 10766 10764 10761 10758 10755 10752 10749 10746 10743 10740 10737 10734 10731 10728 10724 10721 10717 10713 10709 10705 10701 10697 10693 10689 10685 10681 10677 10673 10669 10665 10662 10658 10655 10652 10649 10646 10642 10638 10634 10631 10628 10623 10620 10619 10614 10610 10611
10774 10771 10769 10766 10763 10761 10758 10755 10752 10749 10745 10742 10739 10736 10733 10729 10726 10723 10719 10716 10712 10708 10704 10700 10696 10691 10687 10683 10679 10675 10670 10666 10662 10658 10655 10651 10647 10644 10640 10637 10633 10630 10626 10622 10618 10615 10610 10606 10605 10601 10597 10597
10769 10766 10763 10761 10758 10755 10752 10748 10745 10742 10739 10735 10732 10728 10725 10722 10718 10714 10710 10707 10703 10699 10695 10691 10687 10682 10678 10673 10669 10665 10660 10656 10652 10648 10644 10641 10637 10633 10629 10624 10621 10617 10614 10609 10605 10601 10596 10593 10590 10587 10584 10581
10763 10760 10757 10755 10752 10748 10745 10742 10738 10735 10731 10728 10724 10721 10717 10714 10710 10706 10702 10698 10694 10690 10686 10682 10677 10672 10668 10663 10659 10654 10650 10645 10641 10637 10634 10630 10627 10622 10618 10613 10609 10604 10600 10596 10592 10587 10582 10579 10575 10571 10569 10566
10758 10755 10752 10749 10745 10742 10738 10735 10731 10727 10724 10720 10717 10713 10710 10706 10702 10698 10694 10690 10685 10681 10677 10672 10668 10663 10658 10653 10649 10644 10639 10635 10631 10627 10623 10619 10616 10612 10606 10601 10596 10591 10587 10582 10577 10572 10567 10563 10560 10556 10553 10550
10752 10749 10746 10742 10739 10735 10732 10728 10724 10720 10717 10713 10709 10706 10702 10698 10694 10689 10685 10681 10677 10672 10668 10663 10658 10653 10647 10642 10637 10632 10628 10623 10619 10615 10612 10607 10603 10599 10593 10587 10582 10576 10571 10566 10561 10556 10551 10547 10544 10540 10537 10535
10747 10743 10740 10736 10732 10729 10725 10721 10717 10714 10710 10706 10702 10698 10694 10689 10685 10681 10676 10672 10668 10663 10657 10652 10647 10642 10637 10631 10625 10620 10615 10611 10607 10603 10599 10594 10589 10584 10578 10572 10566 10560 10554 10548 10544 10539 10535 10531 10527 10524 10521 10519
10740 10737 10733 10729 10726 10722 10719 10715 10711 10706 10702 10698 10694 10690 10685 10680 10676 10671 10667 10663 10658 10652 10647 10642 10636 10631 10626 10621 10615 10608 10603 10599 10595 10591 10586 10580 10575 10569 10562 10555 10549 10543 10536 10530 10526 10521 10518 10514 10511 10508 10505 10504
10734 10730 10727 10723 10720 10716 10712 10708 10704 10699 10695 10691 10686 10681 10677 10672 10667 10662 10658 10653 10648 10642 10637 10631 10625 10620 10615 10610 10604 10598 10592 10587 10583 10579 10573 10567 10561 10554 10547 10540 10532 10526 10519 10513 10508 10504 10500 10497 10493 10491 10488 10487
10727 10724 10720 10717 10713 10709 10705 10701 10697 10692 10688 10683 10678 10673 10668 10663 10658 10652 10647 10642 10637 10632 10626 10620 10615 10609 10604 10598 10593 10587 10581 10575 10571 10566 10560 10554 10547 10540 10533 10525 10517 10509 10502 10496 10491 10486 10483 10480 10476 10473 10471 10469
10721 10717 10714 10710 10706 10702 10698 10694 10690 10685 10680 10675 10670 10665 10660 10654 10648 10643 10637 10632 10627 10621 10615 10609 10604 10598 10593 10587 10581 10575 10570 10564 10558 10553 10547 10541 10534 10527 10519 10510 10501 10492 10485 10478 10473 10468 10464 10461 10458 10455 10452 10450
10715 10711 10708 10704 10700 10696 10691 10687 10682 10677 10672 10667 10661 10656 10651 10645 10639 10633 10628 10622 10616 10610 10604 10598 10592 10586 10581 10575 10569 10563 10558 10552 10546 10541 10535 10528 10521 10514 10506 10496 10486 10476 10468 10461 10455 10450 10445 10442 10438 10436 10433 10431
10709 10705 10701 10697 10693 10688 10684 10679 10674 10669 10663 10658 10653 10647 10642 10636 10630 10624 10618 10612 10606 10599 10593 10587 10580 10574 10568 10562 10556 10551 10546 10540 10534 10528 10523 10516 10509 10501 10493 10483 10472 10461 10452 10444 10437 10431 10427 10423 10419 10416 10414 10412
10702 10697 10693 10689 10685 10680 10676 10671 10666 10660 10655 10650 10644 10638 10633 10627 10621 10615 10609 10602 10596 10589 10583 10576 10570 10564 10558 10552 10545 10540 10535 10529 10522 10516 10510 10504 10497 10489 10481 10471 10460 10449 10438 10429 10422 10415 10409 10405 10401 10398 10396 10394
10695 10690 10686 10681 10677 10673 10668 10663 10658 10652 10647 10641 10636 10630 10624 10618 10612 10606 10600 10593 10586 10580 10574 10567 10561 10555 10549 10542 10534 10528 10523 10518 10511 10503 10497 10491 10485 10477 10468 10458 10447 10436 10426 10416 10408 10401 10395 10389 10385 10381 10379 10377
10688 10683 10678 10674 10670 10665 10660 10655 10650 10644 10639 10633 10627 10622 10616 10610 10604 10598 10591 10584 10578 10571 10564 10558 10551 10545 10538 10531 10524 10517 10511 10506 10499 10492 10484 10477 10471 10464 10456 10446 10434 10423 10413 10404 10396 10388 10382 10375 10370 10366 10362 10360
10681 10676 10671 10667 10662 10657 10652 10647 10642 10637 10631 10625 10619 10613 10608 10602 10596 10589 10583 10576 10569 10561 10554 10547 10541 10534 10527 10520 10513 10507 10500 10493 10487 10481 10473 10465 10457 10450 10442 10432 10422 10411 10401 10392 10383 10376 10369 10363 10357 10352 10349 10345
10673 10669 10664 10659 10654 10649 10644 10639 10634 10629 10623 10617 10611 10605 10599 10593 10587 10580 10573 10566 10559 10551 10544 10537 10530 10523 10516 10509 10502 10495 10489 10482 10475 10468 10462 10454 10446 10437 10428 10418 10409 10399 10389 10380 10371 10364 10357 10351 10345 10340 10336 10332
10666 10661 10657 10652 10647 10642 10637 10632 10627 10621 10615 10609 10602 10596 10590 10584 10577 10570 10563 10556 10549 10541 10533 10526 10519 10512 10504 10497 10490 10483 10478 10471 10464 10457 10450 10443 10435 10426 10416 10405 10396 10387 10378 10369 10360 10353 10346 10339 10333 10328 10323 10320
10659 10654 10649 10645 10640 10635 10629 10624 10618 10612 10606 10600 10593 10587 10581 10574 10567 10560 10553 10546 10538 10530 10523 10516 10509 10501 10493 10486 10478 10471 10465 10459 10453 10446 10439 10431 10424 10415 10405 10394 10383 10374 10366 10358 10350 10342 10335 10328 10322 10316 10312 10307
10651 10647 10642 10637 10632 10626 10621 10615 10609 10603 10597 10591 10585 10578 10572 10565 10558 10551 10543 10535 10527 10519 10512 10505 10498 10490 10482 10474 10466 10459 10452 10446 10439 10433 10426 10418 10410 10402 10394 10384 10373 10362 10353 10346 10339 10331 10324 10318 10312 10306 10301 10296
10644 10639 10634 10629 10623 10617 10612 10606 10600 10594 10588 10582 10576 10569 10563 10555 10548 10541 10533 10525 10516 10508 10501 10493 10486 10478 10470 10463 10455 10447 10440 10433 10426 10420 10414 10406 10397 10389 10380 10372 10364 10354 10344 10335 10327 10321 10314 10308 10302 10296 10290 10286
10636 10630 10625 10619 10614 10608 10603 10597 10592 10586 10580 10573 10567 10560 10553 10546 10539 10531 10523 10515 10506 10498 10490 10482 10474 10466 10458 10451 10443 10436 10428 10422 10415 10407 10401 10394 10387 10377 10368 10359 10352 10345 10336 10326 10317 10310 10304 10298 10292 10286 10280 10275
10627 10621 10615 10610 10604 10599 10594 10588 10583 10577 10571 10564 10558 10551 10544 10537 10529 10522 10514 10505 10497 10488 10479 10471 10463 10454 10445 10438 10431 10424 10417 10409 10403 10395 10387 10380 10374 10366 10357 10347 10339 10332 10326 10318 10309 10300 10293 10287 10281 10275 10270 10265
10619 10612 10606 10601 10595 10589 10584 10579 10573 10568 10562 10555 10549 10542 10535 10528 10520 10512 10504 10496 10487 10479 10470 10461 10452 10443 10434 10425 10418 10411 10405 10397 10390 10383 10375 10367 10360 10353 10346 10337 10328 10320 10313 10307 10301 10293 10284 10277 10271 10265 10260 10255
10610 10604 10597 10591 10586 10580 10575 10570 10564 10558 10553 10546 10540 10533 10526 10518 10511 10503 10495 10487 10479 10470 10461 10451 10442 10432 10423 10414 10406 10399 10392 10385 10378 10371 10364 10356 10348 10340 10332 10325 10317 10309 10302 10296 10290 10284 10276 10268 10262 10256 10251 10245
10601 10594 10588 10582 10576 10571 10566 10560 10555 10549 10543 10537 10531 10524 10517 10510 10502 10494 10486 10478 10470 10461 10452 10442 10432 10423 10413 10404 10395 10387 10379 10372 10366 10359 10352 10344 10336 10329 10321 10313 10306 10299 10292 10284 10278 10273 10268 10261 10253 10246 10241 10236
10591 10585 10579 10573 10567 10562 10556 10551 10546 10540 10534 10528 10522 10516 10509 10501 10493 10485 10477 10469 10461 10453 10443 10434 10424 10414 10404 10395 10386 10377 10368 10360 10353 10346 10340 10333 10326 10318 10310 10302 10295 10288 10282 10275 10268 10262 10257 10251 10245 10238 10232 10226
10583 10576 10570 10564 10558 10553 10547 10542 10537 10531 10525 10520 10514 10507 10500 10492 10485 10477 10468 10460 10452 10443 10434 10425 10415 10406 10396 10387 10378 10369 10360 10350 10342 10334 10327 10321 10315 10307 10300 10292 10284 10277 10271 10265 10259 10252 10246 10240 10235 10229 10223 10217